Location: Alvediston
(51.0078°N, 2.0364°W)
Time: 02:48:27
(UTC+00:00)

Lacrosse 5 rocket - Pass Details

Date: 27 February 2020
Orbit: 461 x 636 km, 57.0° (Epoch: 05 April)

Event Time Altitude Azimuth Distance (km) Brightness Sun altitude
Rises 20:17:11 0° 301° (WNW) 2,897 6.3 -24.5°
Reaches altitude 10° 20:19:28 10° 299° (WNW) 2,005 5.2 -24.8°
Enters shadow 20:23:50 74° 247° (WSW) 664 1.7 -25.5°
